Location: Champs
(48.8539°N, 2.6040°E)
Time: 09:40:00
(UTC+00:00)

USA 308 - Pass Details

Date: 06 June 2022
Orbit: 549 x 558 km, 54.0° (Epoch: 14 June)

Event Time Altitude Azimuth Distance (km) Brightness Sun altitude
Rises 01:33:20 0° 295° (WNW) 2,739 6.4 -14.8°
Reaches altitude 10° 01:35:36 10° 299° (WNW) 1,845 5.5 -14.6°
Maximum altitude 01:39:45 62° 20° (NNE) 631 3.4 -14.3°
Drops below altitude 10° 01:43:54 10° 102° (ESE) 1,840 5.7 -14.0°
Sets 01:46:11 0° 106° (ESE) 2,739 6.5 -13.8°
